ASGARDIA 1 (43049 NORAD) Tracking and Keplerian Element Data

This shows tracking and keplerian element data for the satellite.

Feedback or suggestion? Click here.




ElementValue
Catalog43049
NameASGARDIA 1
Epoch Orbit5344
Epoch Day323.18588073
Epoch Year2018
RAAN5.5416
Inclination51.6405
Eccentricity0.0002861
Argument of Perigee121.2421
Mean Anonmoly238.8844
Mean Motion15.39947725
Decay Rate3.388E-05
L11 43049U 17071N 18323.18588073 .00003388 00000-0 93598-4 0 9993
L22 43049 51.6405 5.5416 0002861 121.2421 238.8844 15.39947725 53449

Live tracking and technical data element details for ASGARDIA 1 (NORAD 43049). ASGARDIA 1 can be tracked NOW for your location showing map with azimuth and elevation plus other details from your city location.

Track the satellite on the map from your city or location and see movement details for azimuth, elevation, latitude, longitude, range, height, and movement on the map or in text.







IsCatalogInMostPopularTable: catalog: 43049, numindb: 153
Update: records affected: 1



GetName: 43049 ASGARDIA 1

Hit Count: updated at: Mon, 19 Nov 2018 13:04:32 GMT